"Pseudo-MPEC" for P12bzJT

Created 2025 Jul 7 20:35:07 UT using Find_Orb

Click here for an explanation of pseudo-MPECs

 
 Astrometry: 
     P12bzJT* C2025 07 04.51293321 08 22.260-40 17 30.90   ~74KZ 20.72wXNEOCPF51
     P12bzJT  C2025 07 04.52336721 08 26.304-40 17 50.73   ~74KZ 20.69wXNEOCPF51
     P12bzJT  C2025 07 04.53381521 08 30.390-40 18 10.49   ~74KZ 20.69wXNEOCPF51
     P12bzJT 2C2025 07 05.51026421 15 21.495-40 48 40.39   ~76MZ 21.0 GWNEOCPT12
     P12bzJT 2C2025 07 05.51101021 15 21.797-40 48 41.87   ~76MZ 21.0 GWNEOCPT12

Station data:
(F51) Pan-STARRS 1, Haleakala  (N20.707234 W156.255910)  US/Hawaii.
   Observers J. Bulger, T. Lowe, A. Schultz, M. Willman. Measurers K.
   Chambers, S. Chastel, T. de Boer, L. Denneau, J. Fairlamb, H. Flewelling,
   M. Huber, C.-C. Lin, E. Magnier, Y. Ramanjooloo, R. Wainscoat, R. Weryk.
   1.8-m Ritchey-Chrétien + CCD.
(T12) Mauna Kea-UH/Tholen NEO Follow-Up (2.24-m)  (N19.822991 W155.469434)
   US/Hawaii.  Observer Y. Ramanjooloo. 2.24-m f/10.1 University of Hawaii
   reflector.

Orbital elements:  P12bzJT
   Perihelion 2025 Aug 5.55577 +/- 14.2 TT = 13:20:18 (JD 2460893.05577)
Epoch 2025 Jul  5.0 TT = JDT 2460861.5   Earth MOID: 0.1746   Ju: 0.7167
M 354.00863839 +/- 3.1              Ma: 0.0370                   AutoNEOCP
n   0.18986578 +/- 0.0869           Peri.  242.47417 +/- 24
a   2.99804563 +/- 0.915            Node    76.11911 +/- 7
e   0.6207694 +/- 0.121             Incl.    7.94269 +/- 0.8
P   5.19108                H 22.52  G  0.15   U 11.1  SR
q 1.13695041 +/- 0.0595    Q 4.85914085 +/- 2.48          (J2000 ecliptic)
From 5 observations 2025 July 4-5 (24.0 hr); mean residual 0".22
Residuals in arcseconds: 
250704 F51  .52+  .17-    250704 F51  .39-  .17+    250705 T12  .00   .05-    
250704 F51  .14-  .01+    250705 T12  .01+  .05+    

Ephemerides (geocentric):
Date (UTC) HH   RA             Dec           delta  r     elong  mag " sig PA
---- --------  ------------   ------------  ------ ------ -----  --- --------
2025 07 07 21  21 32 48.442   -41 56 58.59  .21013 1.1932 144.1 20.8  472  72
2025 07 07 22  21 33 07.546   -41 58 06.99  .21003 1.1931 144.1 20.8  486  72
2025 07 07 23  21 33 26.672   -41 59 15.23  .20992 1.1929 144.0 20.8  501  72
2025 07 08 00  21 33 45.819   -42 00 23.29  .20982 1.1928 144.0 20.8  516  72
2025 07 08 01  21 34 04.989   -42 01 31.18  .20971 1.1926 144.0 20.8  532  72
2025 07 08 02  21 34 24.179   -42 02 38.90  .20961 1.1924 143.9 20.8  547  72
2025 07 08 03  21 34 43.391   -42 03 46.44  .20950 1.1923 143.9 20.8  563  72
2025 07 08 04  21 35 02.625   -42 04 53.81  .20940 1.1921 143.9 20.8  579  72
2025 07 08 05  21 35 21.880   -42 06 01.01  .20929 1.1920 143.8 20.8  595  72
2025 07 08 06  21 35 41.156   -42 07 08.03  .20919 1.1918 143.8 20.8  612  72
2025 07 08 07  21 36 00.454   -42 08 14.88  .20909 1.1917 143.8 20.8  629  72
2025 07 08 08  21 36 19.773   -42 09 21.55  .20899 1.1915 143.7 20.8  646  72
2025 07 08 09  21 36 39.113   -42 10 28.04  .20888 1.1914 143.7 20.8  663  72
2025 07 08 10  21 36 58.474   -42 11 34.35  .20878 1.1912 143.6 20.8  680  72
2025 07 08 11  21 37 17.857   -42 12 40.48  .20868 1.1910 143.6 20.8  698  72
2025 07 08 12  21 37 37.260   -42 13 46.44  .20858 1.1909 143.6 20.8  716  73
2025 07 08 13  21 37 56.685   -42 14 52.21  .20848 1.1907 143.5 20.8  734  73
2025 07 08 14  21 38 16.130   -42 15 57.80  .20838 1.1906 143.5 20.8  753  73
2025 07 08 15  21 38 35.596   -42 17 03.21  .20828 1.1904 143.5 20.8  771  73
2025 07 08 16  21 38 55.083   -42 18 08.43  .20818 1.1903 143.4 20.8  790  73
2025 07 08 17  21 39 14.591   -42 19 13.47  .20808 1.1901 143.4 20.8  809  73
2025 07 08 18  21 39 34.120   -42 20 18.33  .20798 1.1900 143.4 20.8  829  73
2025 07 08 19  21 39 53.669   -42 21 23.00  .20788 1.1898 143.3 20.8  848  73
2025 07 08 20  21 40 13.239   -42 22 27.48  .20778 1.1897 143.3 20.8  868  73
2025 07 08 21  21 40 32.829   -42 23 31.78  .20768 1.1895 143.2 20.8  888  73
2025 07 08 22  21 40 52.440   -42 24 35.88  .20759 1.1893 143.2 20.8  909  73
2025 07 08 23  21 41 12.071   -42 25 39.80  .20749 1.1892 143.2 20.8  929  73
2025 07 09 00  21 41 31.722   -42 26 43.53  .20739 1.1890 143.1 20.8  950  73
2025 07 09 01  21 41 51.394   -42 27 47.07  .20729 1.1889 143.1 20.8  971  73
2025 07 09 02  21 42 11.086   -42 28 50.41  .20720 1.1887 143.1 20.8  993  73
2025 07 09 03  21 42 30.799   -42 29 53.57  .20710 1.1886 143.0 20.8 1014  74
2025 07 09 04  21 42 50.531   -42 30 56.53  .20701 1.1884 143.0 20.8 1036  74
2025 07 09 05  21 43 10.283   -42 31 59.29  .20691 1.1883 143.0 20.8 1058  74
2025 07 09 06  21 43 30.056   -42 33 01.87  .20681 1.1881 142.9 20.8 1081  74
2025 07 09 07  21 43 49.848   -42 34 04.24  .20672 1.1880 142.9 20.8 1103  74
2025 07 09 08  21 44 09.660   -42 35 06.43  .20663 1.1878 142.8 20.8 1126  74
2025 07 09 09  21 44 29.492   -42 36 08.41  .20653 1.1877 142.8 20.8 1149  74
2025 07 09 10  21 44 49.343   -42 37 10.20  .20644 1.1875 142.8 20.8 1173  74
2025 07 09 11  21 45 09.215   -42 38 11.78  .20634 1.1874 142.7 20.8 1196  74
2025 07 09 12  21 45 29.106   -42 39 13.17  .20625 1.1872 142.7 20.8 1220  74
2025 07 09 13  21 45 49.016   -42 40 14.36  .20616 1.1871 142.7 20.8 1244  74
2025 07 09 14  21 46 08.946   -42 41 15.35  .20607 1.1869 142.6 20.8 1269  74
2025 07 09 15  21 46 28.895   -42 42 16.14  .20597 1.1868 142.6 20.8 1293  74
2025 07 09 16  21 46 48.863   -42 43 16.72  .20588 1.1866 142.5 20.8 1318  74
2025 07 09 17  21 47 08.851   -42 44 17.10  .20579 1.1865 142.5 20.8 1343  74
2025 07 09 18  21 47 28.858   -42 45 17.28  .20570 1.1863 142.5 20.8 1369  74
2025 07 09 19  21 47 48.884   -42 46 17.25  .20561 1.1862 142.4 20.8 1394  75
2025 07 09 20  21 48 08.929   -42 47 17.02  .20552 1.1860 142.4 20.8 1420  75